Location: Newark
(37.9800°N, 91.3000°W)
Time: 06:12:25
(UTC+00:00)

NOAA 19 - Pass Details

Date: 14 December 2019
Orbit: 840 x 862 km, 99.2° (Epoch: 20 January)

Event Time Altitude Azimuth Distance (km) Brightness Sun altitude
Rises 10:42:45 0° 30° (NNE) 3,434 8.6 -28.8°
Reaches altitude 10° 10:45:44 10° 46° (NE) 2,489 8.1 -28.2°
Maximum altitude 10:49:51 21° 94° (E) 1,813 7.7 -27.4°
Drops below altitude 10° 10:53:55 10° 143° (SE) 2,466 8.2 -26.6°
Sets 10:56:50 0° 158° (SSE) 3,393 8.8 -26.0°
